T7GPM LIRZ-LATI

Flight info

Callsign T7GPM
Flight time 1h 44m
Altitude 38000
Route GITOD5N GITOD DCT INTUD DCT GARGA/N0319F390 DCT VAKSU DCT PETAK PETAK3N
Aircraft P180/L-SDE3FGHIRWY/S

Departure

Time 2026-04-24 08:03
Airport Perugia San Francesco d'Assisi – Umbria International Airport (LIRZ)

Arrival

Time 2026-04-24 09:48
Airport Tirana International Airport Mother Teresa (LATI)
Time Latitude Longitude Altitude Speed Heading
2026-04-24 07:52 43.09457 12.50400 681 ft 0 kts 249°
2026-04-24 07:57 43.09457 12.50399 681 ft 1 kts 253°
2026-04-24 07:57 43.09463 12.50387 681 ft 3 kts 340°
2026-04-24 07:58 43.09488 12.50407 681 ft 5 kts 36°
2026-04-24 07:58 43.09522 12.50444 681 ft 7 kts 39°
2026-04-24 07:58 43.09557 12.50511 682 ft 11 kts 66°
2026-04-24 07:58 43.09590 12.50610 682 ft 12 kts 66°
2026-04-24 07:59 43.09627 12.50720 682 ft 13 kts 65°
2026-04-24 07:59 43.09666 12.50840 684 ft 14 kts 66°
2026-04-24 07:59 43.09708 12.50967 684 ft 15 kts 65°
2026-04-24 07:59 43.09751 12.51102 681 ft 16 kts 66°
2026-04-24 08:00 43.09838 12.51177 685 ft 16 kts 14°
2026-04-24 08:00 43.09947 12.51214 687 ft 16 kts 14°
2026-04-24 08:00 43.10056 12.51251 688 ft 16 kts 14°
2026-04-24 08:00 43.10165 12.51289 689 ft 16 kts 14°
2026-04-24 08:01 43.10274 12.51328 687 ft 16 kts 14°
2026-04-24 08:01 43.10382 12.51367 692 ft 16 kts 14°
2026-04-24 08:01 43.10492 12.51405 693 ft 16 kts 14°
2026-04-24 08:01 43.10603 12.51444 694 ft 16 kts 14°
2026-04-24 08:02 43.10714 12.51483 695 ft 17 kts 14°
2026-04-24 08:02 43.10779 12.51585 694 ft 18 kts 103°
2026-04-24 08:02 43.10716 12.51714 679 ft 16 kts 188°
2026-04-24 08:02 43.10697 12.51708 679 ft 0 kts 193°
2026-04-24 08:03 43.10535 12.51652 680 ft 62 kts 194°
2026-04-24 08:03 43.09778 12.51378 673 ft 152 kts 198°
2026-04-24 08:03 43.08648 12.51000 1086 ft 173 kts 193°
2026-04-24 08:03 43.07435 12.50605 1815 ft 193 kts 193°
2026-04-24 08:04 43.06210 12.49868 2233 ft 184 kts 221°
2026-04-24 08:04 43.05364 12.48686 2689 ft 169 kts 218°
2026-04-24 08:04 43.04368 12.47943 3138 ft 159 kts 202°
2026-04-24 08:04 43.03359 12.47305 3503 ft 160 kts 205°
2026-04-24 08:05 43.02372 12.46585 3862 ft 161 kts 207°
2026-04-24 08:05 43.01372 12.45855 4228 ft 164 kts 206°
2026-04-24 08:05 43.00368 12.45158 4606 ft 163 kts 204°
2026-04-24 08:05 42.99321 12.44433 4959 ft 179 kts 204°
2026-04-24 08:06 42.98173 12.43639 5346 ft 190 kts 205°
2026-04-24 08:06 42.96954 12.42802 5736 ft 202 kts 205°
2026-04-24 08:06 42.95670 12.41911 6126 ft 210 kts 206°
2026-04-24 08:06 42.94345 12.40986 6526 ft 216 kts 206°
2026-04-24 08:07 42.92987 12.40043 6903 ft 222 kts 206°
2026-04-24 08:07 42.91595 12.39081 7277 ft 226 kts 206°
2026-04-24 08:07 42.90200 12.38117 7645 ft 228 kts 206°
2026-04-24 08:07 42.88776 12.37130 8019 ft 230 kts 207°
2026-04-24 08:08 42.87343 12.36136 8402 ft 232 kts 207°
2026-04-24 08:08 42.85893 12.35134 8787 ft 234 kts 207°
2026-04-24 08:08 42.84436 12.34130 9174 ft 234 kts 207°
2026-04-24 08:09 42.81517 12.32117 9960 ft 237 kts 206°
2026-04-24 08:09 42.79928 12.31610 10309 ft 237 kts 174°
2026-04-24 08:09 42.78441 12.32442 10662 ft 231 kts 140°
2026-04-24 08:09 42.77191 12.33809 11028 ft 229 kts 137°
2026-04-24 08:10 42.75921 12.35078 11395 ft 230 kts 142°
2026-04-24 08:10 42.74556 12.36266 11777 ft 229 kts 143°
2026-04-24 08:10 42.73230 12.37461 12150 ft 228 kts 141°
2026-04-24 08:10 42.71960 12.38686 12531 ft 226 kts 140°
2026-04-24 08:11 42.70686 12.39930 12912 ft 225 kts 140°
2026-04-24 08:11 42.69406 12.41147 13307 ft 223 kts 141°
2026-04-24 08:11 42.68129 12.42339 13699 ft 222 kts 141°
2026-04-24 08:11 42.66861 12.43523 14085 ft 220 kts 141°
2026-04-24 08:12 42.65611 12.44703 14432 ft 217 kts 141°
2026-04-24 08:12 42.64387 12.45864 14783 ft 216 kts 141°
2026-04-24 08:12 42.63147 12.47033 15152 ft 213 kts 141°
2026-04-24 08:12 42.61950 12.48158 15500 ft 211 kts 141°
2026-04-24 08:13 42.60751 12.49284 15864 ft 208 kts 141°
2026-04-24 08:13 42.59567 12.50396 16236 ft 206 kts 142°
2026-04-24 08:13 42.58397 12.51498 16611 ft 203 kts 142°
2026-04-24 08:13 42.57245 12.52581 16989 ft 199 kts 142°
2026-04-24 08:14 42.56108 12.53647 17370 ft 197 kts 142°
2026-04-24 08:14 42.54994 12.54694 17756 ft 193 kts 142°
2026-04-24 08:14 42.53914 12.55706 18139 ft 189 kts 142°
2026-04-24 08:14 42.52833 12.56720 18525 ft 184 kts 142°
2026-04-24 08:15 42.51801 12.57684 18858 ft 180 kts 142°
2026-04-24 08:15 42.50777 12.58643 19161 ft 177 kts 141°
2026-04-24 08:15 42.49771 12.59586 19463 ft 174 kts 141°
2026-04-24 08:15 42.48781 12.60512 19767 ft 171 kts 141°
2026-04-24 08:16 42.47819 12.61437 20073 ft 166 kts 134°
2026-04-24 08:16 42.47225 12.62676 20387 ft 153 kts 103°
2026-04-24 08:16 42.47040 12.64053 20705 ft 145 kts 86°
2026-04-24 08:16 42.47033 12.65400 20984 ft 143 kts 89°
2026-04-24 08:17 42.46954 12.66758 21174 ft 146 kts 90°
2026-04-24 08:17 42.46876 12.68134 21361 ft 150 kts 89°
2026-04-24 08:17 42.46814 12.69561 21555 ft 153 kts 89°
2026-04-24 08:17 42.46750 12.71028 21760 ft 159 kts 89°
2026-04-24 08:18 42.46684 12.72540 21959 ft 164 kts 90°
2026-04-24 08:18 42.46614 12.74129 22170 ft 173 kts 90°
2026-04-24 08:18 42.46541 12.75793 22383 ft 181 kts 90°
2026-04-24 08:18 42.46464 12.77530 22608 ft 188 kts 90°
2026-04-24 08:19 42.46382 12.79335 22822 ft 195 kts 90°
2026-04-24 08:19 42.46298 12.81203 23032 ft 202 kts 90°
2026-04-24 08:19 42.46212 12.83126 23241 ft 207 kts 90°
2026-04-24 08:19 42.46124 12.85073 23446 ft 212 kts 91°
2026-04-24 08:20 42.46031 12.87095 23649 ft 217 kts 91°
2026-04-24 08:20 42.45937 12.89161 23841 ft 222 kts 91°
2026-04-24 08:20 42.45841 12.91265 24011 ft 226 kts 91°
2026-04-24 08:20 42.45743 12.93407 24176 ft 229 kts 91°
2026-04-24 08:21 42.45643 12.95573 24339 ft 232 kts 91°
2026-04-24 08:21 42.45541 12.97762 24508 ft 235 kts 91°
2026-04-24 08:21 42.45438 12.99985 24678 ft 238 kts 91°
2026-04-24 08:21 42.45334 13.02240 24837 ft 241 kts 90°
2026-04-24 08:22 42.45230 13.04525 25003 ft 244 kts 91°
2026-04-24 08:22 42.45115 13.06838 25171 ft 248 kts 91°
2026-04-24 08:22 42.45003 13.09162 25453 ft 246 kts 91°
2026-04-24 08:22 42.44898 13.11424 25780 ft 242 kts 91°
2026-04-24 08:23 42.44792 13.13680 26097 ft 239 kts 91°
2026-04-24 08:23 42.44684 13.15923 26440 ft 237 kts 91°
2026-04-24 08:23 42.44576 13.18144 26786 ft 235 kts 91°
2026-04-24 08:23 42.44470 13.20342 27133 ft 233 kts 91°
2026-04-24 08:24 42.44366 13.22525 27489 ft 231 kts 91°
2026-04-24 08:24 42.44262 13.24692 27847 ft 229 kts 91°
2026-04-24 08:24 42.44155 13.26840 28214 ft 228 kts 91°
2026-04-24 08:24 42.44051 13.28976 28582 ft 227 kts 91°
2026-04-24 08:25 42.43948 13.31101 28953 ft 225 kts 91°
2026-04-24 08:25 42.43843 13.33205 29334 ft 223 kts 91°
2026-04-24 08:25 42.43740 13.35260 29714 ft 220 kts 91°
2026-04-24 08:25 42.43637 13.37327 30108 ft 219 kts 90°
2026-04-24 08:26 42.43536 13.39378 30457 ft 217 kts 91°
2026-04-24 08:26 42.43434 13.41418 30793 ft 217 kts 90°
2026-04-24 08:26 42.43333 13.43426 31127 ft 216 kts 90°
2026-04-24 08:26 42.43231 13.45449 31469 ft 215 kts 90°
2026-04-24 08:27 42.43129 13.47466 31813 ft 214 kts 90°
2026-04-24 08:27 42.43026 13.49462 32161 ft 212 kts 90°
2026-04-24 08:27 42.42924 13.51440 32515 ft 210 kts 89°
2026-04-24 08:27 42.42825 13.53424 32774 ft 212 kts 89°
2026-04-24 08:28 42.42725 13.55427 33038 ft 215 kts 89°
2026-04-24 08:28 42.42622 13.57455 33305 ft 217 kts 89°
2026-04-24 08:28 42.42514 13.59493 33578 ft 217 kts 89°
2026-04-24 08:28 42.42406 13.61513 33848 ft 218 kts 89°
2026-04-24 08:29 42.42300 13.63565 34122 ft 219 kts 89°
2026-04-24 08:29 42.42196 13.65619 34372 ft 218 kts 89°
2026-04-24 08:29 42.42089 13.67668 34602 ft 217 kts 89°
2026-04-24 08:29 42.41980 13.69705 34838 ft 216 kts 89°
2026-04-24 08:30 42.41872 13.71730 35079 ft 215 kts 89°
2026-04-24 08:30 42.41766 13.73744 35317 ft 213 kts 89°
2026-04-24 08:30 42.41661 13.75745 35558 ft 212 kts 89°
2026-04-24 08:30 42.41554 13.77730 35806 ft 210 kts 89°
2026-04-24 08:31 42.41450 13.79701 36044 ft 210 kts 89°
2026-04-24 08:31 42.41344 13.81665 36285 ft 207 kts 89°
2026-04-24 08:31 42.41239 13.83600 36537 ft 205 kts 88°
2026-04-24 08:31 42.41136 13.85493 36781 ft 203 kts 88°
2026-04-24 08:32 42.41032 13.87390 37051 ft 201 kts 87°
2026-04-24 08:32 42.40930 13.89260 37302 ft 198 kts 87°
2026-04-24 08:32 42.40833 13.91102 37554 ft 195 kts 87°
2026-04-24 08:32 42.40733 13.92942 37680 ft 197 kts 87°
2026-04-24 08:33 42.40633 13.94800 37814 ft 199 kts 87°
2026-04-24 08:33 42.40530 13.96675 37954 ft 200 kts 87°
2026-04-24 08:33 42.40426 13.98582 37985 ft 207 kts 87°
2026-04-24 08:33 42.40320 14.00558 37982 ft 214 kts 87°
2026-04-24 08:34 42.40246 14.01899 37989 ft 218 kts 88°
2026-04-24 08:34 42.40129 14.03980 37992 ft 225 kts 88°
2026-04-24 08:34 42.40007 14.06120 37978 ft 230 kts 88°
2026-04-24 08:34 42.39886 14.08299 37983 ft 235 kts 88°
2026-04-24 08:35 42.39762 14.10556 37981 ft 245 kts 88°
2026-04-24 08:35 42.39631 14.12898 37983 ft 254 kts 88°
2026-04-24 08:35 42.39495 14.15291 37978 ft 262 kts 89°
2026-04-24 08:35 42.39351 14.17783 37980 ft 269 kts 89°
2026-04-24 08:36 42.39205 14.20341 37983 ft 276 kts 89°
2026-04-24 08:36 42.39056 14.22963 37980 ft 283 kts 89°
2026-04-24 08:36 42.38901 14.25648 37980 ft 289 kts 89°
2026-04-24 08:36 42.38741 14.28394 37981 ft 295 kts 89°
2026-04-24 08:37 42.38581 14.31191 37979 ft 301 kts 89°
2026-04-24 08:37 42.38246 14.36944 37981 ft 311 kts 89°
2026-04-24 08:38 42.37896 14.42836 37983 ft 320 kts 90°
2026-04-24 08:38 42.37540 14.48909 37983 ft 327 kts 90°
2026-04-24 08:39 42.37167 14.55090 37983 ft 333 kts 90°
2026-04-24 08:39 42.36787 14.61373 37985 ft 337 kts 90°
2026-04-24 08:40 42.36402 14.67725 37984 ft 340 kts 90°
2026-04-24 08:40 42.36006 14.74087 37982 ft 343 kts 90°
2026-04-24 08:41 42.35607 14.80534 37983 ft 345 kts 90°
2026-04-24 08:41 42.35201 14.87004 37984 ft 346 kts 90°
2026-04-24 08:42 42.34791 14.93504 37982 ft 348 kts 90°
2026-04-24 08:42 42.34375 15.00041 37979 ft 349 kts 90°
2026-04-24 08:43 42.33953 15.06537 37983 ft 349 kts 90°
2026-04-24 08:43 42.33532 15.13082 37978 ft 350 kts 90°
2026-04-24 08:44 42.33099 15.19638 37981 ft 350 kts 90°
2026-04-24 08:44 42.32666 15.26092 37913 ft 340 kts 90°
2026-04-24 08:44 42.32460 15.29271 37684 ft 340 kts 90°
2026-04-24 08:45 42.32254 15.32469 37440 ft 342 kts 90°
2026-04-24 08:45 42.32042 15.35639 37202 ft 343 kts 90°
2026-04-24 08:45 42.31820 15.38854 36964 ft 344 kts 91°
2026-04-24 08:45 42.31595 15.42083 36731 ft 345 kts 91°
2026-04-24 08:46 42.31377 15.45325 36497 ft 347 kts 90°
2026-04-24 08:46 42.31163 15.48585 36264 ft 348 kts 90°
2026-04-24 08:46 42.30942 15.51852 36043 ft 349 kts 91°
2026-04-24 08:46 42.30714 15.55090 35822 ft 351 kts 91°
2026-04-24 08:47 42.30480 15.58387 35599 ft 352 kts 91°
2026-04-24 08:47 42.30252 15.61685 35379 ft 353 kts 91°
2026-04-24 08:47 42.30028 15.64998 35182 ft 354 kts 91°
2026-04-24 08:47 42.29797 15.68321 34965 ft 356 kts 91°
2026-04-24 08:48 42.29559 15.71657 34750 ft 357 kts 91°
2026-04-24 08:48 42.29319 15.75004 34537 ft 358 kts 91°
2026-04-24 08:48 42.29082 15.78365 34325 ft 360 kts 91°
2026-04-24 08:48 42.28846 15.81733 34108 ft 361 kts 91°
2026-04-24 08:49 42.28606 15.85121 33858 ft 362 kts 91°
2026-04-24 08:49 42.28363 15.88471 33616 ft 363 kts 91°
2026-04-24 08:49 42.28115 15.91875 33372 ft 365 kts 91°
2026-04-24 08:49 42.27868 15.95291 33133 ft 365 kts 91°
2026-04-24 08:50 42.27621 15.98720 32894 ft 366 kts 91°
2026-04-24 08:50 42.27371 16.02148 32672 ft 367 kts 91°
2026-04-24 08:50 42.27117 16.05587 32437 ft 368 kts 91°
2026-04-24 08:50 42.26863 16.09033 32201 ft 369 kts 91°
2026-04-24 08:51 42.26603 16.12483 31972 ft 370 kts 92°
2026-04-24 08:51 42.26266 16.15943 31742 ft 371 kts 94°
2026-04-24 08:51 42.25912 16.19357 31518 ft 372 kts 94°
2026-04-24 08:51 42.25579 16.22860 31282 ft 372 kts 92°
2026-04-24 08:52 42.25287 16.26287 31061 ft 372 kts 92°
2026-04-24 08:52 42.24988 16.29765 30839 ft 373 kts 93°
2026-04-24 08:52 42.24653 16.33249 30619 ft 374 kts 94°
2026-04-24 08:52 42.24285 16.36730 30417 ft 375 kts 94°
2026-04-24 08:53 42.23915 16.40215 30192 ft 375 kts 94°
2026-04-24 08:53 42.23579 16.43709 29937 ft 375 kts 92°
2026-04-24 08:53 42.23278 16.47201 29681 ft 374 kts 92°
2026-04-24 08:53 42.22974 16.50689 29420 ft 374 kts 93°
2026-04-24 08:54 42.22633 16.54168 29169 ft 374 kts 94°
2026-04-24 08:54 42.22264 16.57602 28923 ft 374 kts 94°
2026-04-24 08:54 42.21889 16.61079 28676 ft 373 kts 94°
2026-04-24 08:54 42.21545 16.64537 28429 ft 371 kts 93°
2026-04-24 08:55 42.21231 16.67995 28190 ft 370 kts 92°
2026-04-24 08:55 42.20924 16.71405 27963 ft 369 kts 93°
2026-04-24 08:55 42.20587 16.74848 27723 ft 368 kts 94°
2026-04-24 08:55 42.20223 16.78268 27481 ft 367 kts 94°
2026-04-24 08:56 42.19854 16.81672 27246 ft 366 kts 94°
2026-04-24 08:56 42.19504 16.85060 27013 ft 364 kts 94°
2026-04-24 08:56 42.19181 16.88439 26782 ft 362 kts 93°
2026-04-24 08:56 42.18870 16.91806 26553 ft 361 kts 93°
2026-04-24 08:57 42.18546 16.95151 26324 ft 359 kts 94°
2026-04-24 08:57 42.18199 16.98442 26101 ft 358 kts 94°
2026-04-24 08:57 42.17827 17.01800 25874 ft 357 kts 94°
2026-04-24 08:57 42.17476 17.05062 25666 ft 355 kts 94°
2026-04-24 08:58 42.17143 17.08348 25444 ft 353 kts 93°
2026-04-24 08:58 42.16828 17.11631 25227 ft 352 kts 93°
2026-04-24 08:58 42.16515 17.14899 25010 ft 351 kts 93°
2026-04-24 08:58 42.16183 17.18152 24794 ft 349 kts 94°
2026-04-24 08:59 42.15830 17.21392 24580 ft 348 kts 94°
2026-04-24 08:59 42.15471 17.24613 24368 ft 347 kts 94°
2026-04-24 08:59 42.15129 17.27821 24159 ft 345 kts 94°
2026-04-24 08:59 42.14808 17.31019 23949 ft 343 kts 93°
2026-04-24 09:00 42.14497 17.34208 23738 ft 342 kts 93°
2026-04-24 09:00 42.14172 17.37377 23497 ft 341 kts 94°
2026-04-24 09:00 42.13831 17.40537 23260 ft 340 kts 94°
2026-04-24 09:00 42.13477 17.43684 23015 ft 339 kts 94°
2026-04-24 09:01 42.13134 17.46780 22770 ft 337 kts 94°
2026-04-24 09:01 42.12808 17.49909 22529 ft 336 kts 93°
2026-04-24 09:01 42.12496 17.53057 22287 ft 335 kts 93°
2026-04-24 09:01 42.12186 17.56121 22053 ft 334 kts 94°
2026-04-24 09:02 42.11849 17.59216 21818 ft 333 kts 94°
2026-04-24 09:02 42.11498 17.62302 21582 ft 332 kts 94°
2026-04-24 09:02 42.11151 17.65373 21353 ft 331 kts 94°
2026-04-24 09:02 42.10823 17.68440 21124 ft 330 kts 94°
2026-04-24 09:03 42.10509 17.71500 20895 ft 329 kts 93°
2026-04-24 09:03 42.10196 17.74545 20677 ft 328 kts 94°
2026-04-24 09:03 42.09868 17.77547 20455 ft 327 kts 94°
2026-04-24 09:03 42.09522 17.80579 20232 ft 326 kts 94°
2026-04-24 09:04 42.09176 17.83606 20007 ft 325 kts 94°
2026-04-24 09:04 42.08847 17.86612 19788 ft 324 kts 94°
2026-04-24 09:04 42.08532 17.89610 19564 ft 323 kts 93°
2026-04-24 09:04 42.08218 17.92599 19351 ft 322 kts 94°
2026-04-24 09:05 42.07895 17.95554 19141 ft 322 kts 94°
2026-04-24 09:05 42.07553 17.98535 18927 ft 321 kts 94°
2026-04-24 09:05 42.07208 18.01505 18728 ft 320 kts 94°
2026-04-24 09:05 42.06870 18.04467 18538 ft 319 kts 94°
2026-04-24 09:06 42.06549 18.07418 18343 ft 318 kts 94°
2026-04-24 09:06 42.06237 18.10376 18121 ft 322 kts 94°
2026-04-24 09:06 42.05928 18.13339 17911 ft 326 kts 94°
2026-04-24 09:06 42.05593 18.16351 17672 ft 324 kts 95°
2026-04-24 09:07 42.05235 18.19338 17438 ft 322 kts 95°
2026-04-24 09:07 42.04873 18.22302 17201 ft 320 kts 95°
2026-04-24 09:07 42.04210 18.28194 16732 ft 317 kts 94°
2026-04-24 09:08 42.03907 18.31085 16498 ft 316 kts 94°
2026-04-24 09:08 42.03589 18.34005 16269 ft 315 kts 95°
2026-04-24 09:08 42.03250 18.36916 16028 ft 314 kts 95°
2026-04-24 09:08 42.02911 18.39704 15823 ft 314 kts 95°
2026-04-24 09:09 42.02561 18.42597 15608 ft 313 kts 95°
2026-04-24 09:09 42.02230 18.45483 15390 ft 312 kts 95°
2026-04-24 09:09 42.01914 18.48366 15169 ft 311 kts 95°
2026-04-24 09:09 42.01601 18.51244 14948 ft 310 kts 95°
2026-04-24 09:10 42.01094 18.54076 14713 ft 315 kts 109°
2026-04-24 09:10 42.00052 18.56633 14494 ft 316 kts 117°
2026-04-24 09:10 41.99050 18.59251 14273 ft 312 kts 107°
2026-04-24 09:10 41.98601 18.62084 14052 ft 308 kts 94°
2026-04-24 09:11 41.98200 18.64906 13820 ft 310 kts 105°
2026-04-24 09:11 41.97124 18.67445 13568 ft 315 kts 123°
2026-04-24 09:11 41.95892 18.69823 13330 ft 312 kts 117°
2026-04-24 09:11 41.95237 18.72552 13075 ft 306 kts 96°
2026-04-24 09:12 41.94923 18.75374 12837 ft 305 kts 97°
2026-04-24 09:12 41.94093 18.78014 12596 ft 312 kts 120°
2026-04-24 09:12 41.92826 18.80403 12364 ft 312 kts 121°
2026-04-24 09:12 41.91942 18.83015 12114 ft 304 kts 99°
2026-04-24 09:13 41.91645 18.85696 12100 ft 285 kts 94°
2026-04-24 09:13 41.91021 18.88172 12091 ft 280 kts 117°
2026-04-24 09:13 41.89951 18.90310 12091 ft 271 kts 119°
2026-04-24 09:13 41.89207 18.92555 12094 ft 258 kts 102°
2026-04-24 09:14 41.88824 18.94877 12091 ft 251 kts 95°
2026-04-24 09:14 41.88621 18.97180 12090 ft 246 kts 90°
2026-04-24 09:14 41.88553 18.99466 12089 ft 242 kts 85°
2026-04-24 09:14 41.88615 19.01678 12092 ft 238 kts 81°
2026-04-24 09:15 41.88841 19.03874 12094 ft 235 kts 75°
2026-04-24 09:15 41.89252 19.05980 12092 ft 232 kts 68°
2026-04-24 09:15 41.89843 19.07979 12091 ft 229 kts 61°
2026-04-24 09:15 41.90558 19.09884 12091 ft 227 kts 57°
2026-04-24 09:16 41.91232 19.11795 12089 ft 230 kts 73°
2026-04-24 09:16 41.91185 19.13951 12095 ft 238 kts 97°
2026-04-24 09:16 41.90502 19.15992 12092 ft 245 kts 122°
2026-04-24 09:16 41.89273 19.17603 12093 ft 249 kts 137°
2026-04-24 09:17 41.87923 19.19055 12097 ft 248 kts 137°
2026-04-24 09:17 41.86631 19.20595 12091 ft 248 kts 133°
2026-04-24 09:17 41.85367 19.22175 12087 ft 248 kts 134°
2026-04-24 09:17 41.84097 19.23696 12091 ft 248 kts 135°
2026-04-24 09:18 41.82787 19.25205 12090 ft 248 kts 136°
2026-04-24 09:18 41.81479 19.26715 12085 ft 248 kts 135°
2026-04-24 09:18 41.80183 19.28246 12085 ft 248 kts 135°
2026-04-24 09:18 41.78898 19.29780 12085 ft 248 kts 135°
2026-04-24 09:19 41.77604 19.31310 12088 ft 248 kts 135°
2026-04-24 09:19 41.76443 19.32950 12080 ft 243 kts 120°
2026-04-24 09:19 41.75610 19.34930 11964 ft 245 kts 110°
2026-04-24 09:19 41.75081 19.37083 11857 ft 243 kts 96°
2026-04-24 09:20 41.74955 19.39323 11759 ft 240 kts 83°
2026-04-24 09:20 41.75203 19.41523 11662 ft 238 kts 71°
2026-04-24 09:20 41.75797 19.43579 11560 ft 236 kts 59°
2026-04-24 09:20 41.76364 19.44815 11495 ft 234 kts 51°
2026-04-24 09:21 41.77446 19.46435 11406 ft 233 kts 39°
2026-04-24 09:21 41.78754 19.47702 11307 ft 232 kts 28°
2026-04-24 09:21 41.80739 19.48751 11180 ft 231 kts 13°
2026-04-24 09:21 41.81794 19.48980 11115 ft 231 kts
2026-04-24 09:22 41.83409 19.48943 11018 ft 232 kts 354°
2026-04-24 09:22 41.84981 19.48443 10922 ft 233 kts 342°
2026-04-24 09:22 41.86452 19.47491 10823 ft 236 kts 330°
2026-04-24 09:22 41.87747 19.46125 10729 ft 238 kts 320°
2026-04-24 09:23 41.88954 19.44607 10627 ft 238 kts 320°
2026-04-24 09:23 41.90196 19.43148 10531 ft 237 kts 323°
2026-04-24 09:23 41.91465 19.41736 10438 ft 237 kts 323°
2026-04-24 09:23 41.92733 19.40309 10338 ft 237 kts 322°
2026-04-24 09:24 41.93978 19.38853 10249 ft 238 kts 321°
2026-04-24 09:24 41.95195 19.37383 10152 ft 238 kts 320°
2026-04-24 09:24 41.96363 19.35807 10048 ft 240 kts 311°
2026-04-24 09:24 41.97183 19.33842 9954 ft 242 kts 298°
2026-04-24 09:25 41.97740 19.31691 9843 ft 245 kts 287°
2026-04-24 09:25 41.97885 19.29397 9734 ft 250 kts 270°
2026-04-24 09:25 41.97626 19.27071 9626 ft 253 kts 260°
2026-04-24 09:25 41.96991 19.24848 9530 ft 259 kts 243°
2026-04-24 09:26 41.95920 19.22880 9423 ft 261 kts 232°
2026-04-24 09:26 41.94563 19.21257 9315 ft 263 kts 214°
2026-04-24 09:26 41.92913 19.20180 9230 ft 265 kts 201°
2026-04-24 09:26 41.91144 19.19604 9118 ft 265 kts 184°
2026-04-24 09:27 41.89307 19.19693 9014 ft 264 kts 172°
2026-04-24 09:27 41.87540 19.20299 8912 ft 261 kts 154°
2026-04-24 09:27 41.85975 19.21518 8811 ft 259 kts 143°
2026-04-24 09:27 41.84586 19.23044 8706 ft 256 kts 136°
2026-04-24 09:28 41.83263 19.24646 8604 ft 256 kts 135°
2026-04-24 09:28 41.81942 19.26239 8496 ft 255 kts 136°
2026-04-24 09:28 41.80602 19.27802 8393 ft 255 kts 137°
2026-04-24 09:28 41.79273 19.29328 8288 ft 254 kts 137°
2026-04-24 09:29 41.77935 19.30887 8190 ft 254 kts 136°
2026-04-24 09:29 41.76655 19.32511 8091 ft 252 kts 128°
2026-04-24 09:29 41.75761 19.34495 7988 ft 249 kts 112°
2026-04-24 09:29 41.75151 19.36652 7887 ft 246 kts 102°
2026-04-24 09:30 41.74970 19.38902 7784 ft 243 kts 85°
2026-04-24 09:30 41.75271 19.41845 7644 ft 240 kts 73°
2026-04-24 09:30 41.75657 19.43260 7573 ft 238 kts 63°
2026-04-24 09:30 41.76518 19.45139 7476 ft 236 kts 50°
2026-04-24 09:31 41.77643 19.46685 7379 ft 234 kts 39°
2026-04-24 09:31 41.78996 19.47891 7280 ft 234 kts 27°
2026-04-24 09:31 41.80515 19.48684 7172 ft 235 kts 15°
2026-04-24 09:31 41.82142 19.49025 6944 ft 240 kts
2026-04-24 09:32 41.83822 19.48872 6701 ft 244 kts 351°
2026-04-24 09:32 41.85459 19.48206 6460 ft 249 kts 337°
2026-04-24 09:32 41.86968 19.47038 6191 ft 253 kts 324°
2026-04-24 09:32 41.88285 19.45465 5951 ft 253 kts 317°
2026-04-24 09:33 41.89539 19.43855 5684 ft 252 kts 318°
2026-04-24 09:33 41.90850 19.42295 5439 ft 251 kts 321°
2026-04-24 09:33 41.92196 19.40804 5185 ft 250 kts 322°
2026-04-24 09:33 41.93550 19.39338 4944 ft 251 kts 322°
2026-04-24 09:34 41.94892 19.37836 4697 ft 250 kts 320°
2026-04-24 09:34 41.96190 19.36265 4430 ft 250 kts 315°
2026-04-24 09:34 41.97313 19.34486 4158 ft 249 kts 306°
2026-04-24 09:34 41.97986 19.32361 4006 ft 247 kts 282°
2026-04-24 09:35 41.98032 19.30089 4023 ft 240 kts 269°
2026-04-24 09:35 41.97882 19.27861 4005 ft 238 kts 262°
2026-04-24 09:35 41.97505 19.25711 4020 ft 236 kts 253°
2026-04-24 09:35 41.96741 19.23702 4009 ft 249 kts 232°
2026-04-24 09:36 41.95492 19.22068 4023 ft 257 kts 221°
2026-04-24 09:36 41.94053 19.20617 4031 ft 260 kts 213°
2026-04-24 09:36 41.92431 19.19496 4018 ft 265 kts 202°
2026-04-24 09:36 41.90657 19.18826 4013 ft 265 kts 188°
2026-04-24 09:37 41.88837 19.19119 4008 ft 266 kts 160°
2026-04-24 09:37 41.87172 19.20190 4012 ft 265 kts 151°
2026-04-24 09:37 41.85601 19.21490 4014 ft 265 kts 144°
2026-04-24 09:37 41.84158 19.23026 4016 ft 265 kts 138°
2026-04-24 09:38 41.82774 19.24659 4011 ft 265 kts 137°
2026-04-24 09:38 41.81407 19.26264 4009 ft 265 kts 138°
2026-04-24 09:38 41.80007 19.27871 4009 ft 265 kts 139°
2026-04-24 09:38 41.78598 19.29463 4009 ft 265 kts 139°
2026-04-24 09:39 41.77192 19.31060 4013 ft 265 kts 139°
2026-04-24 09:39 41.75792 19.32678 4012 ft 265 kts 139°
2026-04-24 09:39 41.74397 19.34310 4012 ft 265 kts 138°
2026-04-24 09:39 41.73005 19.35928 4013 ft 266 kts 139°
2026-04-24 09:40 41.71602 19.37544 4012 ft 266 kts 139°
2026-04-24 09:40 41.70192 19.39158 4012 ft 266 kts 139°
2026-04-24 09:40 41.68778 19.40768 4004 ft 266 kts 139°
2026-04-24 09:40 41.67385 19.42355 4007 ft 266 kts 139°
2026-04-24 09:41 41.65977 19.43970 4006 ft 266 kts 139°
2026-04-24 09:41 41.64574 19.45592 4006 ft 266 kts 139°
2026-04-24 09:41 41.63166 19.47209 4007 ft 267 kts 138°
2026-04-24 09:41 41.61753 19.48819 4008 ft 267 kts 138°
2026-04-24 09:42 41.60343 19.50435 4003 ft 266 kts 137°
2026-04-24 09:42 41.59000 19.51985 4012 ft 234 kts 136°
2026-04-24 09:42 41.57919 19.53282 4003 ft 190 kts 135°
2026-04-24 09:42 41.56967 19.54384 4002 ft 175 kts 137°
2026-04-24 09:43 41.56034 19.55411 4012 ft 171 kts 138°
2026-04-24 09:43 41.55122 19.56418 3977 ft 173 kts 139°
2026-04-24 09:43 41.54197 19.57433 4001 ft 173 kts 139°
2026-04-24 09:43 41.53277 19.58437 3994 ft 169 kts 139°
2026-04-24 09:44 41.52327 19.59447 3988 ft 183 kts 139°
2026-04-24 09:44 41.51289 19.60515 3818 ft 188 kts 137°
2026-04-24 09:44 41.50392 19.61677 3718 ft 165 kts 125°
2026-04-24 09:44 41.49941 19.62930 3397 ft 152 kts 101°
2026-04-24 09:45 41.49746 19.64325 3213 ft 153 kts 93°
2026-04-24 09:45 41.49625 19.65736 2959 ft 157 kts 88°
2026-04-24 09:45 41.49655 19.67179 2631 ft 158 kts 82°
2026-04-24 09:45 41.49751 19.68610 2501 ft 149 kts 86°
2026-04-24 09:46 41.49424 19.69916 2371 ft 153 kts 118°
2026-04-24 09:46 41.48728 19.70961 2405 ft 151 kts 146°
2026-04-24 09:46 41.47800 19.71357 1925 ft 147 kts 172°
2026-04-24 09:46 41.46718 19.71462 1588 ft 159 kts 181°
2026-04-24 09:47 41.45577 19.71522 1145 ft 169 kts 179°
2026-04-24 09:47 41.44416 19.71673 775 ft 161 kts 176°
2026-04-24 09:47 41.43294 19.71827 374 ft 167 kts 177°
2026-04-24 09:47 41.42229 19.71957 131 ft 128 kts 174°
2026-04-24 09:48 41.41490 19.72055 116 ft 71 kts 174°
2026-04-24 09:48 41.41178 19.72096 118 ft 29 kts 173°
2026-04-24 09:48 41.40896 19.72138 120 ft 49 kts 174°
2026-04-24 09:48 41.40745 19.72156 123 ft 18 kts 177°
2026-04-24 09:49 41.40674 19.72038 122 ft 19 kts 255°
2026-04-24 09:49 41.40654 19.71935 122 ft 4 kts 256°
2026-04-24 09:49 41.40639 19.71803 122 ft 14 kts 295°
2026-04-24 09:49 41.40736 19.71763 120 ft 16 kts 353°
2026-04-24 09:50 41.40853 19.71739 119 ft 18 kts 350°
2026-04-24 09:50 41.40978 19.71711 119 ft 19 kts 351°
2026-04-24 09:50 41.41100 19.71693 119 ft 20 kts 354°
2026-04-24 09:50 41.41173 19.71684 115 ft 21 kts 354°
2026-04-24 09:52 41.41193 19.71681 118 ft 0 kts 352°
2026-04-24 09:52 41.41234 19.71676 118 ft 12 kts 354°
2026-04-24 09:53 41.41324 19.71664 117 ft 15 kts 354°
2026-04-24 09:53 41.41433 19.71649 115 ft 17 kts 354°
2026-04-24 09:53 41.41555 19.71633 115 ft 18 kts 354°
2026-04-24 09:53 41.41687 19.71615 113 ft 20 kts 354°
2026-04-24 09:54 41.41829 19.71596 113 ft 21 kts 355°
2026-04-24 09:54 41.41980 19.71577 113 ft 22 kts 354°
2026-04-24 09:54 41.42138 19.71551 112 ft 23 kts 356°
2026-04-24 09:54 41.42289 19.71536 111 ft 10 kts 354°
2026-04-24 09:55 41.42309 19.71504 111 ft 7 kts 235°
2026-04-24 09:55 41.42301 19.71458 111 ft 0 kts 265°